Powrót do katalogu

FREGAT DEB

AktywnyUNKNOWN
NORAD 45891·DEBRIS·🇷🇺 Russia

Wystrzelony Jul 18, 2011 z Baikonur Cosmodrome

Loading…

Następne Przeloty (najbliższe 24 godziny)

TLE

ŚwieżeSource: Space-Track

Epoka: Sep 12, 2026, 21:23 UTC

1 45891U 11037DL  26255.89107762  .00002525  00000-0  20117-2 0  9996
2 45891  51.3354 155.1336 1134640 173.4267 188.3007 12.35927289267553

Śledź FREGAT DEB w czasie rzeczywistym z AllMySat

Download on the App Store